QPF
0.01 0.01 0.00 0.00 0.00 0.01 0.01 0.02 0.02 0.01 0.01 0.01 0.02 0.02 0.02 0.02 0.02 0.03 0.03 0.04 0.04 0.05 0.04 0.05 0.07 0.05 0.04 0.03 0.03 0.04 0.03 0.03 0.04 0.04 0.05 0.05 0.07 0.07 0.05 0.03 0.03 0.02 0.01
0.01 0.01 0.01 0.01 0.00 0.00 0.01 0.01 0.01 0.02 0.03 0.03 0.03 0.03 0.02 0.02 0.02 0.02 0.02 0.03 0.04 0.04 0.04 0.05 0.08 0.06 0.06 0.04 0.04 0.03 0.03 0.03 0.03 0.04 0.05 0.04 0.04 0.05 0.06 0.05 0.03 0.02 0.01
0.01 0.01 0.01 0.01 0.00 0.00 0.01 0.01 0.01 0.01 0.02 0.02 0.02 0.02 0.02 0.02 0.02 0.02 0.02 0.02 0.02 0.03 0.04 0.04 0.06 0.07 0.07 0.06 0.04 0.03 0.03 0.03 0.03 0.04 0.05 0.04 0.03 0.03 0.05 0.05 0.04 0.03 0.02
0.01 0.01 0.02 0.02 0.01 0.01 0.01 0.01 0.01 0.01 0.02 0.02 0.01 0.01 0.01 0.02 0.02 0.02 0.02 0.02 0.02 0.03 0.03 0.04 0.04 0.05 0.05 0.06 0.05 0.04 0.04 0.04 0.04 0.04 0.04 0.05 0.04 0.02 0.03 0.04 0.04 0.04 0.03
0.01 0.01 0.02 0.02 0.02 0.01 0.02 0.02 0.01 0.01 0.02 0.02 0.02 0.01 0.01 0.01 0.02 0.04 0.04 0.04 0.04 0.03 0.03 0.03 0.03 0.04 0.04 0.04 0.04 0.06 0.06 0.05 0.04 0.04 0.04 0.04 0.04 0.03 0.04 0.04 0.04 0.04 0.04
0.01 0.01 0.01 0.02 0.03 0.03 0.03 0.03 0.03 0.02 0.03 0.03 0.02 0.03 0.03 0.02 0.02 0.02 0.03 0.04 0.05 0.04 0.03 0.05 0.04 0.03 0.03 0.03 0.02 0.02 0.04 0.05 0.05 0.04 0.03 0.04 0.04 0.04 0.06 0.06 0.06 0.06 0.05
0.02 0.02 0.02 0.03 0.03 0.03 0.03 0.04 0.05 0.05 0.05 0.04 0.05 0.05 0.04 0.04 0.02 0.02 0.02 0.03 0.04 0.03 0.04 0.04 0.03 0.02 0.03 0.02 0.02 0.01 0.01 0.01 0.02 0.03 0.03 0.03 0.02 0.02 0.03 0.04 0.06 0.05 0.05
0.03 0.03 0.04 0.05 0.05 0.06 0.07 0.07 0.07 0.06 0.06 0.06 0.05 0.04 0.04 0.03 0.02 0.02 0.02 0.02 0.02 0.02 0.02 0.01 0.02 0.03 0.02 0.02 0.02 0.02 0.03 0.02 0.01 0.01 0.03 0.03 0.02 0.02 0.02 0.03 0.05 0.05 0.06
0.02 0.02 0.04 0.06 0.07 0.08 0.08 0.07 0.05 0.05 0.05 0.05 0.05 0.04 0.03 0.02 0.02 0.03 0.04 0.02 0.01 0.01 0.02 0.02 0.02 0.02 0.02 0.01 0.02 0.04 0.04 0.03 0.01 0.01 0.01 0.01 0.01 0.01 0.02 0.03 0.04 0.04 0.04
0.01 0.02 0.04 0.05 0.06 0.06 0.06 0.05 0.04 0.04 0.04 0.04 0.04 0.03 0.03 0.02 0.02 0.02 0.03 0.03 0.04 0.05 0.05 0.04 0.03 0.02 0.02 0.01 0.02 0.04 0.04 0.03 0.02 0.01 0.01 0.01 0.01 0.01 0.02 0.02 0.03 0.04 0.04
0.02 0.03 0.06 0.07 0.07 0.09 0.09 0.07 0.06 0.05 0.04 0.03 0.03 0.03 0.02 0.02 0.01 0.01 0.01 0.01 0.02 0.03 0.04 0.05 0.05 0.03 0.01 0.00 0.01 0.03 0.03 0.02 0.02 0.02 0.02 0.02 0.03 0.03 0.02 0.02 0.03 0.02 0.04
0.03 0.06 0.07 0.07 0.07 0.07 0.06 0.06 0.06 0.05 0.04 0.04 0.04 0.03 0.03 0.02 0.02 0.02 0.02 0.02 0.02 0.02 0.03 0.04 0.04 0.03 0.01 0.01 0.01 0.01 0.01 0.01 0.02 0.02 0.03 0.03 0.03 0.03 0.03 0.03 0.04 0.03 0.03
0.02 0.03 0.03 0.03 0.03 0.03 0.03 0.04 0.03 0.03 0.03 0.03 0.04 0.04 0.03 0.03 0.03 0.02 0.03 0.03 0.02 0.03 0.04 0.04 0.04 0.03 0.02 0.01 0.01 0.01 0.01 0.01 0.02 0.03 0.04 0.04 0.04 0.03 0.03 0.04 0.04 0.04 0.03
0.02 0.03 0.03 0.03 0.04 0.03 0.03 0.03 0.03 0.04 0.04 0.03 0.03 0.03 0.02 0.03 0.04 0.04 0.04 0.03 0.02 0.03 0.04 0.05 0.05 0.05 0.04 0.04 0.04 0.03 0.02 0.02 0.03 0.03 0.03 0.05 0.05 0.04 0.05 0.04 0.04 0.03 0.03
0.03 0.03 0.03 0.03 0.03 0.04 0.03 0.03 0.04 0.05 0.06 0.05 0.04 0.04 0.04 0.04 0.04 0.04 0.03 0.02 0.02 0.03 0.04 0.05 0.05 0.04 0.04 0.04 0.04 0.04 0.03 0.02 0.02 0.02 0.03 0.03 0.04 0.04 0.04 0.04 0.05 0.04 0.04
0.02 0.02 0.02 0.02 0.03 0.03 0.04 0.04 0.05 0.05 0.06 0.07 0.07 0.07 0.06 0.05 0.04 0.03 0.03 0.02 0.02 0.02 0.02 0.03 0.04 0.05 0.04 0.03 0.03 0.04 0.04 0.04 0.03 0.02 0.02 0.02 0.03 0.03 0.04 0.04 0.05 0.05 0.04
0.03 0.03 0.03 0.03 0.03 0.04 0.05 0.05 0.06 0.06 0.06 0.07 0.07 0.06 0.06 0.05 0.04 0.04 0.03 0.03 0.03 0.03 0.03 0.03 0.04 0.05 0.05 0.04 0.04 0.04 0.04 0.03 0.03 0.03 0.04 0.03 0.04 0.04 0.04 0.04 0.04 0.05 0.04
0.04 0.03 0.02 0.02 0.03 0.03 0.04 0.05 0.06 0.07 0.08 0.08 0.06 0.04 0.03 0.03 0.03 0.04 0.05 0.05 0.04 0.04 0.03 0.03 0.03 0.03 0.03 0.03 0.03 0.04 0.05 0.06 0.05 0.03 0.03 0.04 0.04 0.04 0.04 0.05 0.06 0.05 0.04
0.03 0.03 0.03 0.03 0.03 0.02 0.03 0.04 0.05 0.06 0.08 0.08 0.06 0.04 0.02 0.02 0.02 0.03 0.03 0.04 0.03 0.03 0.03 0.04 0.04 0.04 0.05 0.04 0.04 0.05 0.06 0.07 0.07 0.05 0.05 0.04 0.04 0.04 0.05 0.05 0.05 0.04 0.03
0.03 0.02 0.02 0.03 0.03 0.02 0.02 0.02 0.02 0.02 0.02 0.02 0.03 0.03 0.02 0.02 0.02 0.02 0.02 0.02 0.02 0.02 0.03 0.03 0.04 0.04 0.03 0.04 0.04 0.05 0.05 0.06 0.06 0.05 0.05 0.05 0.05 0.05 0.05 0.04 0.04 0.03 0.02
0.03 0.03 0.03 0.03 0.03 0.03 0.03 0.03 0.02 0.01 0.01 0.01 0.02 0.01 0.01 0.01 0.01 0.02 0.02 0.02 0.01 0.02 0.02 0.03 0.03 0.03 0.02 0.02 0.02 0.03 0.03 0.04 0.05 0.05 0.04 0.03 0.04 0.04 0.04 0.03 0.03 0.03 0.02
0.03 0.03 0.03 0.03 0.03 0.03 0.03 0.03 0.02 0.02 0.01 0.01 0.00 0.00 0.00 0.01 0.01 0.01 0.01 0.02 0.02 0.03 0.03 0.03 0.03 0.02 0.01 0.01 0.01 0.01 0.02 0.03 0.03 0.04 0.03 0.03 0.03 0.03 0.03 0.03 0.03 0.03 0.03
0.03 0.03 0.03 0.03 0.02 0.03 0.03 0.03 0.03 0.03 0.02 0.02 0.01 0.01 0.01 0.01 0.01 0.01 0.01 0.01 0.03 0.04 0.05 0.05 0.04 0.04 0.03 0.02 0.01 0.01 0.02 0.02 0.03 0.03 0.02 0.02 0.02 0.02 0.02 0.02 0.02 0.03 0.03
0.02 0.02 0.02 0.02 0.02 0.02 0.02 0.02 0.02 0.02 0.03 0.04 0.04 0.03 0.02 0.02 0.02 0.02 0.01 0.01 0.01 0.02 0.02 0.03 0.03 0.04 0.04 0.04 0.04 0.03 0.03 0.03 0.03 0.03 0.02 0.02 0.02 0.02 0.02 0.02 0.02 0.02 0.03
0.02 0.01 0.01 0.02 0.01 0.01 0.01 0.01 0.02 0.03 0.05 0.05 0.03 0.02 0.02 0.02 0.02 0.02 0.01 0.01 0.01 0.01 0.01 0.01 0.02 0.02 0.02 0.02 0.02 0.03 0.03 0.03 0.02 0.02 0.02 0.02 0.02 0.02 0.02 0.02 0.02 0.02 0.02
0.01 0.01 0.02 0.02 0.02 0.01 0.01 0.01 0.01 0.02 0.03 0.02 0.02 0.02 0.02 0.03 0.03 0.02 0.02 0.01 0.01 0.01 0.01 0.01 0.02 0.01 0.01 0.01 0.01 0.02 0.02 0.02 0.02 0.02 0.02 0.02 0.02 0.02 0.02 0.02 0.02 0.02 0.03
MSLP
1008.12 1008.37 1008.58 1008.73 1008.77 1008.71 1008.57 1008.35 1008.10 1007.85 1007.62 1007.42 1007.26 1007.11 1006.97 1006.82 1006.65 1006.43 1006.19 1005.92 1005.63 1005.35 1005.09 1004.84 1004.62 1004.42 1004.25 1004.10 1003.96 1003.85 1003.76 1003.71 1003.70 1003.74 1003.84 1004.00 1004.21 1004.47 1004.76 1005.09 1005.45 1005.82 1006.19
1008.35 1008.54 1008.72 1008.83 1008.86 1008.80 1008.66 1008.46 1008.23 1007.98 1007.76 1007.57 1007.41 1007.28 1007.17 1007.05 1006.91 1006.75 1006.57 1006.36 1006.14 1005.92 1005.70 1005.49 1005.28 1005.09 1004.90 1004.71 1004.53 1004.37 1004.23 1004.13 1004.07 1004.07 1004.13 1004.25 1004.42 1004.64 1004.90 1005.18 1005.47 1005.77 1006.08
1008.63 1008.76 1008.88 1008.95 1008.95 1008.89 1008.75 1008.56 1008.35 1008.13 1007.92 1007.75 1007.60 1007.48 1007.38 1007.28 1007.17 1007.04 1006.90 1006.74 1006.58 1006.41 1006.24 1006.07 1005.90 1005.73 1005.54 1005.36 1005.17 1004.99 1004.82 1004.69 1004.60 1004.56 1004.59 1004.67 1004.80 1004.97 1005.17 1005.38 1005.59 1005.80 1006.01
1008.93 1008.98 1009.04 1009.06 1009.03 1008.95 1008.81 1008.64 1008.45 1008.26 1008.09 1007.94 1007.82 1007.72 1007.63 1007.54 1007.45 1007.34 1007.23 1007.10 1006.98 1006.85 1006.72 1006.59 1006.46 1006.32 1006.17 1006.01 1005.83 1005.66 1005.49 1005.34 1005.23 1005.17 1005.16 1005.21 1005.29 1005.41 1005.54 1005.67 1005.79 1005.90 1005.99
1009.21 1009.19 1009.18 1009.15 1009.08 1008.98 1008.84 1008.68 1008.52 1008.37 1008.23 1008.12 1008.04 1007.96 1007.90 1007.83 1007.74 1007.65 1007.55 1007.44 1007.33 1007.23 1007.13 1007.04 1006.95 1006.85 1006.74 1006.61 1006.46 1006.30 1006.14 1006.00 1005.88 1005.80 1005.77 1005.78 1005.82 1005.88 1005.94 1006.00 1006.03 1006.03 1006.02
1009.44 1009.37 1009.30 1009.21 1009.10 1008.96 1008.82 1008.66 1008.53 1008.41 1008.31 1008.25 1008.20 1008.16 1008.13 1008.07 1008.01 1007.92 1007.82 1007.72 1007.62 1007.53 1007.45 1007.39 1007.33 1007.26 1007.19 1007.09 1006.97 1006.84 1006.70 1006.56 1006.44 1006.35 1006.30 1006.27 1006.27 1006.29 1006.30 1006.28 1006.24 1006.16 1006.06
1009.63 1009.52 1009.39 1009.25 1009.09 1008.92 1008.75 1008.59 1008.46 1008.36 1008.30 1008.27 1008.27 1008.27 1008.26 1008.23 1008.18 1008.11 1008.01 1007.91 1007.81 1007.72 1007.66 1007.61 1007.57 1007.53 1007.48 1007.42 1007.33 1007.22 1007.09 1006.96 1006.84 1006.73 1006.65 1006.60 1006.57 1006.55 1006.52 1006.47 1006.38 1006.24 1006.07
1009.77 1009.64 1009.48 1009.29 1009.09 1008.87 1008.66 1008.48 1008.34 1008.24 1008.19 1008.19 1008.21 1008.24 1008.27 1008.26 1008.23 1008.17 1008.08 1007.98 1007.88 1007.79 1007.73 1007.69 1007.66 1007.65 1007.62 1007.58 1007.51 1007.41 1007.29 1007.15 1007.02 1006.89 1006.79 1006.71 1006.66 1006.61 1006.56 1006.49 1006.39 1006.24 1006.04
1009.87 1009.73 1009.55 1009.34 1009.09 1008.82 1008.57 1008.35 1008.18 1008.07 1008.02 1008.02 1008.06 1008.11 1008.15 1008.17 1008.15 1008.10 1008.02 1007.93 1007.83 1007.75 1007.69 1007.65 1007.64 1007.63 1007.62 1007.59 1007.52 1007.43 1007.30 1007.16 1007.00 1006.85 1006.72 1006.62 1006.54 1006.48 1006.42 1006.36 1006.27 1006.13 1005.96
1009.93 1009.81 1009.62 1009.38 1009.10 1008.80 1008.50 1008.24 1008.03 1007.89 1007.82 1007.81 1007.85 1007.91 1007.96 1007.99 1007.99 1007.96 1007.89 1007.80 1007.71 1007.63 1007.57 1007.54 1007.53 1007.54 1007.53 1007.50 1007.44 1007.34 1007.20 1007.03 1006.85 1006.66 1006.50 1006.36 1006.26 1006.19 1006.14 1006.10 1006.04 1005.95 1005.82
1009.94 1009.84 1009.66 1009.42 1009.12 1008.79 1008.46 1008.16 1007.91 1007.74 1007.65 1007.62 1007.65 1007.71 1007.77 1007.81 1007.82 1007.79 1007.73 1007.65 1007.57 1007.50 1007.45 1007.42 1007.41 1007.42 1007.42 1007.39 1007.33 1007.22 1007.06 1006.86 1006.65 1006.42 1006.22 1006.04 1005.91 1005.83 1005.79 1005.77 1005.76 1005.73 1005.67
1009.90 1009.81 1009.65 1009.41 1009.11 1008.77 1008.42 1008.11 1007.84 1007.65 1007.54 1007.50 1007.52 1007.57 1007.63 1007.67 1007.69 1007.67 1007.62 1007.54 1007.47 1007.40 1007.35 1007.32 1007.32 1007.32 1007.32 1007.30 1007.23 1007.11 1006.94 1006.72 1006.47 1006.21 1005.96 1005.75 1005.59 1005.49 1005.44 1005.45 1005.47 1005.50 1005.51
1009.77 1009.70 1009.55 1009.33 1009.04 1008.71 1008.37 1008.06 1007.80 1007.61 1007.49 1007.45 1007.47 1007.52 1007.58 1007.63 1007.65 1007.63 1007.58 1007.51 1007.43 1007.35 1007.30 1007.27 1007.26 1007.27 1007.27 1007.24 1007.17 1007.05 1006.87 1006.63 1006.36 1006.07 1005.79 1005.54 1005.35 1005.23 1005.18 1005.19 1005.24 1005.32 1005.40
1009.56 1009.48 1009.34 1009.13 1008.87 1008.57 1008.26 1007.98 1007.75 1007.58 1007.48 1007.46 1007.49 1007.55 1007.61 1007.66 1007.69 1007.67 1007.62 1007.53 1007.44 1007.35 1007.28 1007.24 1007.22 1007.22 1007.22 1007.19 1007.13 1007.02 1006.84 1006.61 1006.33 1006.03 1005.73 1005.46 1005.25 1005.10 1005.03 1005.04 1005.11 1005.21 1005.33
1009.25 1009.15 1009.01 1008.81 1008.58 1008.32 1008.06 1007.83 1007.64 1007.52 1007.46 1007.47 1007.52 1007.60 1007.68 1007.74 1007.76 1007.74 1007.67 1007.58 1007.46 1007.35 1007.26 1007.19 1007.16 1007.14 1007.14 1007.12 1007.07 1006.98 1006.83 1006.62 1006.36 1006.07 1005.77 1005.50 1005.27 1005.11 1005.03 1005.02 1005.08 1005.19 1005.33
1008.86 1008.72 1008.56 1008.38 1008.17 1007.95 1007.74 1007.56 1007.44 1007.37 1007.37 1007.41 1007.50 1007.61 1007.70 1007.77 1007.79 1007.76 1007.68 1007.56 1007.43 1007.29 1007.16 1007.07 1007.01 1006.98 1006.97 1006.96 1006.94 1006.88 1006.77 1006.61 1006.39 1006.15 1005.88 1005.62 1005.40 1005.23 1005.14 1005.11 1005.15 1005.25 1005.38
1008.42 1008.24 1008.05 1007.86 1007.66 1007.48 1007.31 1007.19 1007.12 1007.11 1007.15 1007.24 1007.36 1007.48 1007.59 1007.67 1007.69 1007.66 1007.57 1007.43 1007.27 1007.10 1006.95 1006.83 1006.74 1006.70 1006.69 1006.70 1006.71 1006.69 1006.64 1006.54 1006.40 1006.21 1006.00 1005.79 1005.60 1005.44 1005.33 1005.28 1005.30 1005.37 1005.47
1007.97 1007.73 1007.51 1007.30 1007.11 1006.94 1006.81 1006.72 1006.69 1006.71 1006.78 1006.90 1007.04 1007.18 1007.30 1007.39 1007.41 1007.37 1007.27 1007.13 1006.95 1006.77 1006.59 1006.46 1006.36 1006.31 1006.31 1006.34 1006.38 1006.42 1006.44 1006.42 1006.36 1006.26 1006.12 1005.97 1005.81 1005.68 1005.58 1005.51 1005.50 1005.53 1005.60
1007.54 1007.25 1007.00 1006.77 1006.57 1006.40 1006.27 1006.20 1006.17 1006.20 1006.28 1006.40 1006.54 1006.68 1006.80 1006.89 1006.91 1006.88 1006.79 1006.65 1006.47 1006.29 1006.12 1005.98 1005.89 1005.85 1005.86 1005.92 1006.01 1006.11 1006.19 1006.26 1006.28 1006.27 1006.22 1006.13 1006.03 1005.93 1005.84 1005.77 1005.74 1005.73 1005.74
1007.15 1006.83 1006.55 1006.30 1006.08 1005.89 1005.75 1005.65 1005.61 1005.61 1005.66 1005.76 1005.88 1006.00 1006.11 1006.19 1006.22 1006.20 1006.13 1006.01 1005.86 1005.71 1005.56 1005.45 1005.38 1005.37 1005.42 1005.51 1005.65 1005.80 1005.95 1006.09 1006.20 1006.27 1006.30 1006.29 1006.24 1006.18 1006.11 1006.04 1005.98 1005.94 1005.91
1006.82 1006.49 1006.19 1005.92 1005.67 1005.45 1005.27 1005.13 1005.03 1004.99 1004.99 1005.03 1005.10 1005.18 1005.27 1005.34 1005.37 1005.38 1005.34 1005.26 1005.17 1005.07 1004.97 1004.91 1004.90 1004.93 1005.02 1005.17 1005.35 1005.56 1005.77 1005.97 1006.15 1006.29 1006.38 1006.43 1006.44 1006.41 1006.36 1006.30 1006.23 1006.15 1006.08
1006.54 1006.22 1005.92 1005.63 1005.35 1005.10 1004.86 1004.66 1004.49 1004.37 1004.29 1004.26 1004.27 1004.30 1004.35 1004.40 1004.44 1004.47 1004.48 1004.46 1004.44 1004.42 1004.40 1004.42 1004.47 1004.57 1004.72 1004.92 1005.15 1005.40 1005.66 1005.91 1006.14 1006.33 1006.47 1006.57 1006.61 1006.62 1006.59 1006.52 1006.44 1006.35 1006.24
1006.30 1006.00 1005.70 1005.40 1005.10 1004.80 1004.51 1004.24 1003.99 1003.79 1003.62 1003.51 1003.44 1003.41 1003.42 1003.46 1003.50 1003.56 1003.62 1003.67 1003.73 1003.80 1003.88 1003.99 1004.13 1004.31 1004.52 1004.77 1005.05 1005.34 1005.64 1005.92 1006.17 1006.39 1006.56 1006.68 1006.74 1006.76 1006.74 1006.68 1006.59 1006.48 1006.35
1006.07 1005.78 1005.49 1005.18 1004.86 1004.53 1004.18 1003.85 1003.53 1003.24 1003.00 1002.80 1002.66 1002.58 1002.55 1002.56 1002.61 1002.70 1002.80 1002.93 1003.07 1003.23 1003.41 1003.62 1003.85 1004.11 1004.39 1004.70 1005.02 1005.34 1005.66 1005.95 1006.21 1006.43 1006.61 1006.73 1006.79 1006.82 1006.79 1006.73 1006.63 1006.51 1006.36
1005.78 1005.52 1005.23 1004.92 1004.58 1004.22 1003.83 1003.45 1003.07 1002.72 1002.41 1002.15 1001.96 1001.83 1001.77 1001.77 1001.82 1001.93 1002.08 1002.27 1002.48 1002.73 1003.00 1003.29 1003.61 1003.94 1004.29 1004.64 1005.00 1005.34 1005.67 1005.96 1006.22 1006.42 1006.58 1006.68 1006.74 1006.74 1006.70 1006.62 1006.51 1006.37 1006.20
1005.42 1005.16 1004.87 1004.55 1004.19 1003.81 1003.40 1002.98 1002.58 1002.19 1001.84 1001.55 1001.32 1001.17 1001.09 1001.08 1001.15 1001.28 1001.47 1001.70 1001.98 1002.29 1002.64 1003.00 1003.39 1003.78 1004.18 1004.58 1004.95 1005.31 1005.63 1005.91 1006.15 1006.32 1006.45 1006.52 1006.53 1006.50 1006.43 1006.32 1006.18 1006.01 1005.83
Thickness
5791 5788 5785 5782 5780 5777 5775 5773 5771 5769 5767 5766 5764 5763 5762 5760 5759 5756 5756 5754 5751 5749 5748 5746 5743 5742 5742 5741 5740 5737 5734 5731 5725 5726 5727 5726 5722 5721 5721 5721 5722 5722 5722
5790 5786 5783 5779 5777 5774 5772 5770 5768 5766 5764 5762 5761 5759 5759 5757 5755 5753 5751 5750 5747 5744 5742 5740 5738 5737 5734 5733 5732 5730 5728 5724 5721 5717 5719 5720 5717 5717 5716 5715 5718 5720 5719
5789 5784 5780 5776 5773 5771 5769 5767 5765 5762 5760 5759 5757 5755 5754 5752 5750 5749 5747 5745 5742 5740 5738 5734 5732 5730 5727 5726 5724 5724 5722 5721 5717 5714 5713 5714 5714 5713 5711 5711 5713 5713 5715
5786 5782 5777 5773 5770 5768 5766 5763 5761 5759 5756 5754 5753 5751 5749 5747 5745 5743 5741 5739 5736 5734 5732 5729 5726 5723 5721 5719 5718 5715 5715 5713 5711 5710 5709 5708 5707 5707 5705 5705 5705 5706 5707
5779 5777 5773 5770 5767 5764 5761 5758 5756 5754 5752 5749 5747 5745 5743 5742 5739 5736 5734 5733 5729 5727 5725 5723 5720 5716 5713 5711 5711 5709 5708 5706 5705 5704 5703 5702 5700 5698 5698 5699 5698 5699 5701
5773 5771 5768 5765 5761 5758 5756 5753 5750 5748 5745 5743 5740 5738 5737 5736 5731 5727 5725 5725 5723 5720 5717 5716 5714 5711 5707 5703 5701 5699 5698 5698 5697 5696 5696 5693 5691 5691 5691 5691 5691 5691 5690
5767 5764 5761 5759 5756 5754 5752 5748 5744 5742 5739 5736 5734 5731 5729 5725 5721 5718 5716 5717 5716 5713 5710 5708 5709 5708 5702 5700 5697 5693 5692 5689 5687 5688 5688 5686 5685 5685 5682 5683 5683 5683 5683
5760 5757 5755 5752 5750 5747 5744 5741 5738 5736 5733 5729 5726 5724 5721 5718 5713 5710 5708 5709 5709 5706 5703 5702 5700 5697 5696 5692 5692 5691 5689 5686 5683 5682 5681 5680 5679 5677 5675 5675 5675 5676 5678
5754 5751 5749 5746 5743 5740 5737 5734 5731 5728 5726 5723 5720 5718 5714 5710 5705 5703 5700 5703 5701 5698 5697 5695 5692 5690 5685 5682 5683 5683 5681 5680 5678 5675 5672 5671 5668 5667 5666 5667 5668 5668 5670
5747 5745 5743 5740 5736 5733 5730 5727 5724 5721 5719 5717 5714 5712 5709 5705 5699 5695 5692 5696 5694 5692 5690 5688 5683 5681 5677 5674 5675 5676 5673 5673 5673 5672 5667 5665 5664 5663 5660 5659 5660 5660 5662
5741 5738 5736 5733 5729 5727 5724 5720 5717 5715 5712 5710 5707 5705 5702 5698 5693 5688 5685 5687 5687 5685 5685 5683 5680 5672 5669 5666 5665 5667 5665 5664 5666 5666 5665 5663 5662 5660 5658 5656 5654 5654 5654
5733 5730 5728 5725 5724 5721 5716 5713 5710 5708 5705 5702 5699 5697 5696 5692 5687 5682 5678 5676 5675 5677 5676 5675 5672 5665 5662 5659 5659 5658 5656 5654 5660 5660 5658 5657 5655 5654 5653 5651 5648 5647 5646
5725 5722 5719 5717 5715 5713 5709 5706 5703 5701 5701 5698 5694 5691 5689 5686 5682 5676 5673 5670 5668 5668 5668 5664 5660 5657 5656 5655 5652 5650 5649 5652 5653 5652 5650 5648 5647 5645 5644 5642 5641 5639 5638
5715 5713 5711 5708 5706 5704 5701 5700 5696 5694 5691 5688 5685 5683 5680 5678 5675 5671 5669 5667 5662 5662 5661 5658 5653 5651 5650 5649 5648 5647 5646 5646 5644 5643 5642 5640 5639 5638 5635 5634 5632 5632 5631
5706 5703 5701 5700 5698 5694 5691 5689 5687 5684 5681 5677 5675 5673 5670 5668 5664 5658 5656 5658 5657 5656 5653 5653 5652 5651 5649 5648 5646 5643 5640 5638 5635 5633 5632 5632 5630 5628 5626 5625 5622 5622 5621
5698 5695 5694 5692 5688 5686 5683 5679 5674 5672 5668 5665 5661 5659 5659 5655 5652 5649 5647 5645 5644 5643 5644 5647 5647 5644 5642 5641 5639 5636 5633 5631 5628 5625 5623 5622 5621 5620 5618 5616 5614 5613 5612
5689 5687 5686 5683 5680 5677 5674 5672 5668 5662 5658 5655 5653 5650 5648 5645 5643 5641 5639 5638 5636 5635 5638 5641 5639 5637 5635 5633 5631 5628 5626 5624 5620 5616 5614 5613 5612 5610 5609 5607 5605 5603 5603
5682 5679 5676 5675 5672 5670 5668 5665 5662 5658 5655 5653 5647 5642 5639 5636 5634 5632 5632 5630 5632 5630 5633 5633 5631 5630 5627 5625 5622 5620 5618 5615 5612 5608 5605 5603 5602 5600 5598 5597 5596 5594 5593
5673 5671 5668 5666 5665 5663 5660 5658 5655 5652 5649 5647 5644 5638 5631 5629 5626 5625 5625 5627 5628 5627 5626 5624 5622 5621 5618 5615 5613 5611 5609 5606 5603 5599 5597 5594 5592 5590 5588 5587 5586 5582 5582
5663 5659 5657 5657 5656 5654 5653 5650 5647 5645 5642 5639 5637 5633 5629 5627 5626 5624 5621 5621 5620 5618 5617 5616 5613 5611 5609 5606 5604 5601 5599 5597 5594 5591 5588 5585 5583 5581 5578 5576 5576 5575 5573
5657 5653 5648 5649 5648 5645 5643 5641 5639 5637 5635 5632 5630 5626 5619 5622 5621 5619 5616 5614 5612 5609 5608 5606 5605 5602 5600 5597 5595 5593 5590 5588 5585 5582 5579 5576 5574 5571 5568 5567 5566 5565 5564
5648 5646 5642 5641 5639 5635 5633 5631 5630 5629 5627 5624 5622 5620 5612 5614 5614 5613 5610 5606 5603 5601 5599 5597 5595 5593 5590 5587 5585 5583 5580 5577 5574 5572 5569 5566 5563 5561 5559 5557 5556 5556 5556
5639 5637 5634 5632 5630 5625 5624 5623 5622 5620 5618 5616 5614 5613 5609 5606 5605 5604 5601 5599 5595 5592 5590 5587 5585 5582 5579 5576 5573 5571 5568 5565 5562 5559 5557 5555 5553 5551 5549 5548 5547 5546 5546
5630 5628 5626 5623 5621 5619 5617 5615 5613 5611 5609 5607 5606 5604 5601 5597 5596 5594 5592 5590 5587 5584 5581 5578 5575 5572 5568 5565 5562 5560 5556 5552 5549 5548 5546 5545 5544 5542 5540 5539 5538 5538 5537
5622 5620 5618 5616 5614 5612 5609 5607 5605 5603 5601 5599 5597 5594 5592 5590 5587 5585 5582 5580 5577 5574 5571 5568 5565 5562 5558 5554 5551 5548 5543 5540 5537 5535 5535 5534 5534 5532 5531 5530 5529 5528 5528
5615 5614 5612 5610 5607 5604 5601 5599 5596 5594 5592 5590 5588 5586 5583 5581 5579 5576 5573 5570 5568 5565 5561 5558 5555 5551 5548 5544 5540 5535 5532 5529 5527 5524 5523 5525 5524 5524 5522 5522 5521 5520 5519